CZ-4C DEB, 45484

Orbit data source: Space-Track

CZ-4C DEB, 45484 is space debris in LEO originally from a launch on Tue, 10 Apr 2018 UTC launched from the Jiuquan Satellite Launch Center, China (JSC). Debris objects in space refer to the collection of defunct objects orbiting the Earth. Examples of debris include non-operational satellites, rocket bodies, and fragments generated from explosions, collisions, or faulty payload assembly.

Loading next visibility...
Identifier
45484, 2018-034M
Orbit
LEO
Country
Flag of CNCN / PRC
Related business
Manufacturer
Unknown
Mission
Spacecraft
Bus & Motor
Unknown
Mass
Unknown
Launch date (UTC)
2018-04-10 (8 years ago)
Launch vehicle
Unknown
Launch site
Jiuquan Satellite Launch Center, China (JSC)
Object type
Payload
Rocket body
Debris
Shape & HBR
Unknown shape, 0.1 m
Radar Cross Section
Small (<0.1 m²)

Expand to show TLE details & history
Last TLE update: 2 days ago

TLE from 2 days ago
0 CZ-4C DEB
1 45484U 18034M   26036.43655682 -.00000034  00000-0  80353-4 0  9998
2 45484  63.3891  99.6204 0254156   8.2279 352.2795 13.42934954349719
Epoch: 2026-02-05T10:28Z
TLE epoch observation values (Epoch: 2026-02-05T10:28:38.509Z)
Latitude
-0°
Longitude
166.87114°
Altitude
911.905 km
Speed
7.489 km/s
True Right ascension
06h 38m 28s
True Declination
0° 00' 00"
Sunlit
Object was in full shadow at epoch
Visualization orbit readout
Latitude
Unknown
Longitude
Unknown
Altitude
Unknown
Speed
Unknown
Apparent Right ascension
Unknown
Apparent Declination
Unknown
Sunlit
N/A
Visualization observer readout
Local Sidereal Time
04:02:22
Azimuth
Unknown
Elevation
Unknown
Doppler factor
Unknown
Orbital elements
Apogee altitude
1,287.187 km
Perigee altitude
907.207 km
Semi-major axis
7,475.334 km
Eccentricity
0.02542
Inclination
63.3891°
RAAN
99.6204°
Arg. of periapsis
8.2279°
True anomaly
351.87555°
Mean anomaly
352.2795°
Eccentric anomaly
352.07882°
Mean motion
3.35813 °/min
Orbital period
107.2 mins
BSTAR
0.000080353
Loading maneuver chart data...
Computing Atmospheric mass density...
Loading historical data...
Loading historical data...
Loading historical data...
Loading historical data...
Loading historical data...
Loading historical data...
Loading historical data...

Documentation

Showing up to 5 results
|